DateTimeUTC,F1_A11,F1_S11,BsB_S11,BsG_S11,BsR_S11,BbsB_S11,BbsG_S11,BbsR_S11,BaB_A11,BaG_A11,BaR_A11,Tu_S11,T_S11,Uu_S11,U_S11,P_S11,T1_A11
2021-04-26T12:00:00Z,00000200,20000000,,,,,,,0000.34,-000.12,-000.12,17.0,23.9,01.7,01.1,0685.3,31.0
2021-04-26T12:01:00Z,00000200,20000000,,,,,,,-000.36,0000.12,0000.26,17.0,23.9,01.7,01.1,0685.3,31.0
2021-04-26T12:02:00Z,00000200,20000000,,,,,,,0000.31,0000.34,-000.01,16.9,23.9,01.7,01.1,0685.3,31.0
2021-04-26T12:03:00Z,00000200,60000000,,,,,,,0001.01,0000.54,0000.73,16.9,23.9,02.0,01.3,0685.3,31.0
2021-04-26T12:04:00Z,00000200,40000000,0003.18,0001.61,0001.32,0001.25,0000.21,0000.13,0000.52,0000.80,0000.30,17.1,23.7,02.2,01.5,0686.2,31.0
2021-04-26T12:05:00Z,00000200,00000000,0002.61,0001.53,0001.19,0000.87,0000.49,0000.23,0000.69,0000.59,0000.56,17.1,23.7,02.3,01.5,0686.3,31.0
2021-04-26T12:06:00Z,00000200,00000000,0002.73,0001.63,0001.25,0000.49,0000.45,0000.30,0000.98,0000.60,0000.55,17.1,23.7,02.4,01.6,0686.3,31.0
2021-04-26T12:07:00Z,00000200,00000000,0003.31,0001.83,0001.21,0001.03,0000.22,0000.05,0000.85,0000.55,0000.29,17.1,23.7,02.3,01.5,0686.3,31.0
2021-04-26T12:08:00Z,00000200,01000000,0002.72,0001.75,0001.25,0000.57,0000.37,0000.27,0000.43,0000.72,0000.65,17.1,23.7,02.2,01.5,0686.3,31.0
2021-04-26T12:09:00Z,00000200,00000000,0002.87,0001.79,0001.25,0000.36,0000.25,-000.02,0000.42,0000.24,0000.19,17.1,23.7,02.2,01.5,0686.3,31.0
2021-04-26T12:10:00Z,00000200,00000000,0002.52,0001.76,0001.21,0000.60,0000.43,0000.08,0000.53,0000.55,-000.02,17.1,23.7,02.2,01.5,0686.3,31.0
2021-04-26T12:11:00Z,00000200,00000000,0002.54,0001.86,0001.09,0000.71,0000.37,0000.30,0000.75,0000.74,0000.84,17.2,23.7,02.2,01.5,0686.3,31.0
2021-04-26T12:12:00Z,00000200,00000000,0001.84,0001.63,0001.31,0000.42,0000.43,0000.22,0000.49,0000.42,0000.46,17.1,23.7,02.1,01.4,0686.3,31.0
2021-04-26T12:13:00Z,00000200,00000000,0003.28,0001.60,0000.91,0000.57,0000.41,0000.19,0001.09,0000.88,0000.62,17.2,23.7,02.2,01.4,0686.3,31.0
2021-04-26T12:14:00Z,00000200,00000000,0002.92,0001.75,0001.22,0000.53,0000.37,0000.08,0000.78,0000.98,0000.73,17.2,23.7,02.2,01.5,0686.4,31.0
2021-04-26T12:15:00Z,00000200,01000000,0003.00,0001.62,0001.27,0000.89,0000.41,0000.26,0000.94,0000.71,0000.34,17.2,23.7,02.2,01.5,0686.3,31.0
2021-04-26T12:16:00Z,00000200,00000000,0003.06,0001.58,0000.92,0001.15,0000.45,0000.10,0000.68,0000.74,0000.83,17.2,23.7,02.4,01.6,0686.3,31.0
2021-04-26T12:17:00Z,00000200,00000000,0002.59,0001.67,0001.07,0000.63,0000.50,0000.19,0000.83,0000.92,0000.46,17.2,23.7,02.4,01.6,0686.3,31.0
2021-04-26T12:18:00Z,00000200,00000000,0003.06,0001.94,0001.20,0000.58,0000.43,0000.16,0000.70,0000.36,0000.71,17.2,23.7,02.4,01.6,0686.3,31.0
2021-04-26T12:19:00Z,00000200,00000000,0002.81,0001.60,0001.21,0000.57,0000.29,0000.44,0000.85,0000.61,0000.19,17.3,23.7,02.5,01.7,0686.3,31.0
2021-04-26T12:20:00Z,00000200,00000000,0003.28,0002.00,0001.11,0000.28,0000.45,0000.22,0000.79,0000.67,0000.86,17.3,23.7,02.5,01.7,0686.3,31.0
2021-04-26T12:21:00Z,00000200,00000000,0003.12,0001.69,0001.21,0000.80,0000.51,0000.31,0000.16,0000.75,0000.13,17.3,23.7,02.6,01.8,0686.3,31.0
2021-04-26T12:22:00Z,00000200,00000000,0002.84,0001.64,0001.25,0000.23,0000.46,0000.38,0001.32,0000.76,0000.65,17.3,23.7,02.6,01.7,0686.3,31.0
2021-04-26T12:23:00Z,00000200,00000000,0002.57,0001.76,0001.13,0000.64,0000.66,0000.19,0000.30,0000.33,0000.55,17.3,23.7,02.5,01.7,0686.4,31.0
2021-04-26T12:24:00Z,00000200,00000000,0002.39,0001.81,0000.92,0000.55,0000.34,0000.26,0000.90,0000.62,0000.37,17.3,23.7,02.6,01.7,0686.4,31.0
2021-04-26T12:25:00Z,00000200,00000000,0002.41,0001.82,0001.04,0000.82,0000.63,0000.36,0001.07,0000.86,0000.82,17.3,23.7,02.6,01.8,0686.3,31.0
2021-04-26T12:26:00Z,00000200,00000000,0002.17,0002.08,0001.16,0000.87,0000.36,0000.21,0000.41,0000.62,0000.39,17.3,23.7,02.6,01.7,0686.4,31.0
2021-04-26T12:27:00Z,00000200,00000000,0002.66,0001.85,0001.12,0000.52,0000.38,0000.03,0000.75,0000.88,0000.33,17.4,23.8,02.7,01.8,0686.3,31.0
2021-04-26T12:28:00Z,00000200,00000000,0002.86,0001.98,0001.22,0000.38,0000.32,0000.05,0001.08,0000.71,0000.67,17.4,23.8,02.6,01.8,0686.3,31.0
2021-04-26T12:29:00Z,00000200,00000000,0002.96,0001.74,0000.89,-000.09,0000.52,0000.20,0000.38,0000.36,0000.36,17.4,23.8,02.6,01.7,0686.3,31.0
2021-04-26T12:30:00Z,00000200,00000000,0002.34,0001.60,0001.22,0000.51,0000.50,0000.34,0001.01,0000.91,0000.51,17.4,23.8,02.7,01.9,0686.3,31.0
2021-04-26T12:31:00Z,00000200,00000000,0003.30,0001.82,0001.09,0000.35,0000.58,0000.06,0000.56,0000.42,0000.72,17.4,23.8,02.7,01.9,0686.3,31.0
2021-04-26T12:32:00Z,00000200,00000000,0003.48,0001.76,0001.04,0000.13,0000.40,0000.22,0000.86,0000.72,0000.35,17.5,23.8,02.8,01.9,0686.4,31.0
2021-04-26T12:33:00Z,00000200,00000000,0003.24,0001.70,0001.13,0000.58,0000.34,0000.38,0001.02,0000.47,0000.54,17.5,23.8,02.7,01.8,0686.4,31.0
2021-04-26T12:34:00Z,00000200,00000000,0003.33,0002.10,0001.14,0000.55,0000.30,0000.08,0000.40,0000.87,0000.54,17.5,23.8,02.6,01.8,0686.4,31.0
2021-04-26T12:35:00Z,00000200,00000000,0003.31,0001.98,0001.00,0000.80,0000.40,0000.18,0000.82,0000.66,0000.17,17.5,23.8,02.8,01.9,0686.4,31.0
2021-04-26T12:36:00Z,00000200,00000000,0003.17,0001.79,0001.19,0000.62,0000.49,0000.01,0000.82,0000.66,0001.05,17.5,23.9,02.7,01.9,0686.4,31.0
2021-04-26T12:37:00Z,00000200,00000000,0003.18,0001.61,0001.21,0000.81,0000.24,0000.18,0000.19,0000.64,0000.35,17.6,23.9,02.7,01.8,0686.4,31.0
2021-04-26T12:38:00Z,00000200,00000000,0002.63,0001.75,0000.86,0000.84,0000.55,-000.21,0001.08,0000.62,0000.37,17.6,23.9,02.7,01.8,0686.4,31.0
2021-04-26T12:39:00Z,00000200,00000000,0003.53,0001.51,0001.48,0000.53,0000.28,0000.12,0000.61,0000.54,0000.64,17.6,23.9,02.8,01.9,0686.4,31.0
2021-04-26T12:40:00Z,00000200,00000000,0002.11,0001.94,0001.17,0000.52,0000.16,0000.06,0000.76,0001.05,0000.37,17.6,23.9,02.7,01.9,0686.3,31.0
2021-04-26T12:41:00Z,00000200,00000000,0003.03,0002.30,0001.19,0000.30,0000.40,0000.08,0000.77,0000.53,0000.76,17.6,23.9,02.8,01.9,0686.3,31.0
2021-04-26T12:42:00Z,00000200,00000000,0003.10,0001.83,0001.18,0000.61,0000.22,0000.11,0000.91,0000.70,0000.46,17.7,24.0,02.7,01.9,0686.4,31.0
2021-04-26T12:43:00Z,00000200,00000000,0003.04,0001.90,0001.13,0001.31,0000.23,0000.08,0000.37,0000.54,0000.46,17.7,24.0,02.8,01.9,0686.4,31.0
2021-04-26T12:44:00Z,00000200,00000000,0002.66,0001.66,0001.14,0000.66,0000.18,-000.03,0001.07,0000.93,0000.43,17.7,24.0,02.8,01.9,0686.4,31.0
2021-04-26T12:45:00Z,00000200,00000000,0002.69,0001.91,0001.22,0000.51,0000.22,-000.24,0000.53,0000.61,0000.63,17.7,24.0,02.9,01.9,0686.4,31.0
2021-04-26T12:46:00Z,00000200,00000000,0002.99,0001.81,0001.04,0000.63,0000.27,0000.42,0000.90,0000.81,0000.51,17.7,24.0,02.8,01.9,0686.4,31.0
2021-04-26T12:47:00Z,00000200,00000000,0002.79,0001.59,0000.90,0000.52,0000.54,-000.24,0000.66,0000.57,0000.34,17.8,24.0,02.8,01.9,0686.4,31.0
2021-04-26T12:48:00Z,00000200,00000000,0002.51,0001.83,0000.99,0000.85,0000.44,-000.14,0000.66,0000.54,0000.50,17.8,24.1,02.8,01.9,0686.4,31.1
2021-04-26T12:49:00Z,00000200,00000000,0003.34,0001.65,0001.10,0000.15,0000.57,0000.18,0001.12,0000.76,0000.68,17.8,24.1,03.0,02.0,0686.4,31.1
2021-04-26T12:50:00Z,00000200,00000000,0002.66,0001.55,0001.07,0000.48,0000.66,0000.08,0000.68,0000.43,0000.34,17.8,24.1,02.8,01.9,0686.4,31.1
2021-04-26T12:51:00Z,00000200,00000000,0002.80,0001.82,0000.80,0000.70,0000.19,0000.01,0000.50,0001.04,0000.74,17.9,24.1,02.9,01.9,0686.4,31.0
2021-04-26T12:52:00Z,00000200,00000000,0002.54,0001.82,0001.07,0000.77,0000.50,0000.27,0000.70,0000.39,0000.05,17.9,24.1,02.9,02.0,0686.4,31.1
2021-04-26T12:53:00Z,00000200,00000000,0002.78,0001.97,0001.22,0001.00,0000.51,0000.16,0000.64,0000.73,0000.71,17.9,24.1,02.8,01.9,0686.4,31.1
2021-04-26T12:54:00Z,00000200,00000000,0002.78,0002.09,0001.19,0000.72,0000.34,0000.34,0000.73,0000.69,0000.53,17.9,24.2,02.8,01.9,0686.4,31.1
2021-04-26T12:55:00Z,00000200,00000000,0002.04,0001.71,0001.14,0000.63,0000.65,0000.01,0000.64,0000.53,0000.55,17.9,24.2,02.8,01.9,0686.4,31.1
2021-04-26T12:56:00Z,00000200,00000000,0003.00,0002.05,0001.11,0000.49,0000.27,0000.37,0000.81,0000.39,0000.41,18.0,24.2,02.8,01.9,0686.3,31.1
2021-04-26T12:57:00Z,00000200,40000000,,,,,,,-000.41,0000.11,-000.36,18.0,24.3,03.2,02.2,0686.3,31.1
2021-04-26T12:58:00Z,00000200,60000000,,,,,,,0000.39,-000.19,0000.07,17.9,24.3,02.6,01.7,0685.4,31.1
2021-04-26T12:59:00Z,00000200,20000000,,,,,,,-000.44,0000.14,-000.20,17.9,24.4,02.5,01.7,0685.3,31.1
